Overview Statistics Trail Chart Weather Telemetry Raw packets
 

This is the latest recevied weather packets stored in our database for station/object KQ4PPF. If no packets are shown the sender has not sent any weather packets the latest 10 day(s).

<< 94 95 96 97 98 99 100 >>
Time Temp. Humidity Pressure Rain* Wind** Luminosity Snow
1787868265 30° C 63% 1012.5 hPa 0 mm - 19 W/m² -
1787867960 30° C 63% 1012.4 hPa 0 mm - 19 W/m² -
1787867656 30° C 62% 1012.4 hPa 0 mm - 20 W/m² -
1787867349 30° C 65% 1012.6 hPa 0 mm - 23 W/m² -
1787867046 30° C 64% 1012.4 hPa 0 mm - 23 W/m² -
1787866740 29.44° C 67% 1012.6 hPa 0 mm - 26 W/m² -
1787866440 29.44° C 71% 1012.7 hPa 0 mm - 30 W/m² -
1787866134 28.89° C 71% 1012.6 hPa 0 mm - 28 W/m² -
1787865834 29.44° C 71% 1012.5 hPa 0 mm - 25 W/m² -
1787865530 29.44° C 68% 1012.8 hPa 0 mm - 28 W/m² -
1787865225 30° C 68% 1012.8 hPa 0 mm - 17 W/m² -
1787864921 30° C 65% 1012.8 hPa 0 mm - 20 W/m² -
1787864616 30° C 68% 1012.7 hPa 0 mm - 34 W/m² -
1787864310 30° C 65% 1013 hPa 0 mm - 33 W/m² -
1787864005 30° C 69% 1012.7 hPa 0 mm - 34 W/m² -
1787863704 30° C 69% 1013 hPa 0 mm - 35 W/m² -
1787863403 30° C 68% 1012.9 hPa 0 mm - 37 W/m² -
1787863099 29.44° C 70% 1013 hPa 0 mm - 51 W/m² -
1787862794 29.44° C 69% 1013 hPa 0 mm - 62 W/m² -
1787862493 29.44° C 71% 1012.9 hPa 0 mm - 47 W/m² -
1787862189 30° C 70% 1013.2 hPa 0 mm - 50 W/m² -
1787861883 30° C 70% 1013 hPa 0 mm - 46 W/m² -
1787861582 30.56° C 67% 1013.2 hPa 0 mm - 47 W/m² -
1787861271 30.56° C 64% 1013.4 hPa 0 mm - 63 W/m² -
1787860970 30.56° C 62% 1013.2 hPa 0 mm - 79 W/m² -

* Rain latest hour (hover to see other rain measurements)
** Current wind speed in m/s (hover to see current wind gust speed)